,,Stat6,,Stat2,,Stat8,,Stat9,,Stat10,,Wind1,,Wind1,
time,status,PA1M_AVG,status,PR1M_SUM,status,RH1M_AVG,status,SR1M_AVG,status,TA1M_AVG,status,W1dAve1m,status,W1sAve1m,
2006-03-31, 00:00:00,VALID,919.672,VALID,0,VALID,100,VALID,-0.0169808,VALID,19.9397,VALID,86,VALID,0.442383,
2006-03-31, 00:01:00,VALID,919.665,VALID,0,VALID,100,VALID,-0.0509425,VALID,19.3772,VALID,86,VALID,0.253299,
2006-03-31, 00:02:00,VALID,919.674,VALID,0,VALID,100,VALID,-0.0679233,VALID,19.529,VALID,83,VALID,0.289236,
2006-03-31, 00:03:00,VALID,919.668,VALID,0,VALID,100,VALID,-0.0339617,VALID,18.8919,VALID,41,VALID,0.39375,
2006-03-31, 00:04:00,VALID,919.652,VALID,0,VALID,100,VALID,-0.0849042,VALID,21.0014,VALID,41,VALID,0.196243,
2006-03-31, 00:05:00,VALID,919.609,VALID,0,VALID,100,VALID,-0.0679233,VALID,20.6389,VALID,41,VALID,0.0664931,
2006-03-31, 00:06:00,VALID,919.574,VALID,0,VALID,100,VALID,-0.101885,VALID,19.3718,VALID,41,VALID,0,
2006-03-31, 00:07:00,VALID,919.555,VALID,0,VALID,100,VALID,-0.0679233,VALID,20.5795,VALID,41,VALID,0,
2006-03-31, 00:08:00,VALID,919.536,VALID,0,VALID,100,VALID,-0.0679233,VALID,19.5534,VALID,41,VALID,0.0338542,
2006-03-31, 00:09:00,VALID,919.526,VALID,0,VALID,99.9842,VALID,-0.0679233,VALID,19.5952,VALID,41,VALID,0.203125,
2006-03-31, 00:10:00,VALID,919.498,VALID,0,VALID,100,VALID,-0.0339617,VALID,19.4389,VALID,41,VALID,0.221112,
2006-03-31, 00:11:00,VALID,919.471,VALID,0,VALID,100,VALID,-0.0679233,VALID,19.8198,VALID,57,VALID,0.380996,
2006-03-31, 00:12:00,VALID,919.446,VALID,0,VALID,99.9741,VALID,-0.0339617,VALID,20.2357,VALID,96,VALID,0.75651,
2006-03-31, 00:13:00,VALID,919.422,VALID,0,VALID,99.8782,VALID,-0.0679233,VALID,19.9764,VALID,111,VALID,0.997456,
2006-03-31, 00:14:00,VALID,919.427,VALID,0,VALID,99.8095,VALID,-0.101885,VALID,19.8917,VALID,112,VALID,0.81907,
2006-03-31, 00:15:00,VALID,919.412,VALID,0,VALID,99.7294,VALID,-0.0679233,VALID,20.8992,VALID,112,VALID,0.627907,
2006-03-31, 00:16:00,VALID,919.394,VALID,0,VALID,99.7421,VALID,-0.0679233,VALID,20.0089,VALID,112,VALID,0.319425,
2006-03-31, 00:17:00,VALID,919.367,VALID,0,VALID,99.8095,VALID,-0.0849042,VALID,21.0154,VALID,115,VALID,0.599144,
2006-03-31, 00:18:00,VALID,919.346,VALID,0,VALID,99.9868,VALID,-0.0849042,VALID,21.0657,VALID,125,VALID,0.607088,
2006-03-31, 00:19:00,VALID,919.319,VALID,0,VALID,100,VALID,-0.0679233,VALID,20.434,VALID,147,VALID,0.807351,
2006-03-31, 00:20:00,VALID,919.298,VALID,0,VALID,100,VALID,-0.101885,VALID,19.3298,VALID,142,VALID,0.634859,
2006-03-31, 00:21:00,VALID,919.265,VALID,0,VALID,100,VALID,-0.101885,VALID,19.9153,VALID,132,VALID,0.635352,
2006-03-31, 00:22:00,VALID,919.242,VALID,0,VALID,100,VALID,-0.0679233,VALID,19.9337,VALID,130,VALID,0.442116,
2006-03-31, 00:23:00,VALID,919.204,VALID,0,VALID,100,VALID,-0.0849042,VALID,19.5044,VALID,131,VALID,0.220238,
2006-03-31, 00:24:00,VALID,919.164,VALID,0,VALID,100,VALID,-0.101885,VALID,20.4978,VALID,136,VALID,0.415153,
2006-03-31, 00:25:00,VALID,919.133,VALID,0,VALID,100,VALID,-0.0849042,VALID,19.5495,VALID,153,VALID,0.221839,
2006-03-31, 00:26:00,VALID,919.106,VALID,0,VALID,100,VALID,-0.101885,VALID,19.9307,VALID,164,VALID,0.267154,
2006-03-31, 00:27:00,VALID,919.082,VALID,0,VALID,100,VALID,-0.0509425,VALID,19.7652,VALID,175,VALID,0.320676,
2006-03-31, 00:28:00,VALID,919.055,VALID,0,VALID,100,VALID,-0.101885,VALID,20.325,VALID,175,VALID,0.185742,
2006-03-31, 00:29:00,VALID,919.021,VALID,0,VALID,100,VALID,-0.0679233,VALID,18.6381,VALID,175,VALID,0.0904018,
2006-03-31, 00:30:00,VALID,918.998,VALID,0,VALID,100,VALID,-0.101885,VALID,19.6601,VALID,175,VALID,0,
2006-03-31, 00:31:00,VALID,918.998,VALID,0,VALID,100,VALID,-0.101885,VALID,19.9834,VALID,175,VALID,0,
2006-03-31, 00:32:00,VALID,918.993,VALID,0,VALID,100,VALID,-0.0849042,VALID,20.7641,VALID,175,VALID,0.0617898,
2006-03-31, 00:33:00,VALID,918.983,VALID,0,VALID,100,VALID,-0.0679233,VALID,20.766,VALID,175,VALID,0.0838914,
2006-03-31, 00:34:00,VALID,918.976,VALID,0,VALID,100,VALID,-0.0679233,VALID,21.0252,VALID,175,VALID,0.000600962,
2006-03-31, 00:35:00,VALID,918.962,VALID,0,VALID,100,VALID,-0.101885,VALID,19.6446,VALID,160,VALID,0.278587,
2006-03-31, 00:36:00,VALID,918.951,VALID,0,VALID,100,VALID,-0.101885,VALID,19.6042,VALID,85,VALID,0.361555,
2006-03-31, 00:37:00,VALID,918.941,VALID,0,VALID,100,VALID,-0.0509425,VALID,19.3382,VALID,70,VALID,0.42016,
2006-03-31, 00:38:00,VALID,918.93,VALID,0,VALID,100,VALID,-0.0679233,VALID,20.6628,VALID,68,VALID,0.491425,
2006-03-31, 00:39:00,VALID,918.922,VALID,0,VALID,100,VALID,-0.0849042,VALID,19.668,VALID,68,VALID,0.578307,
2006-03-31, 00:40:00,VALID,918.891,VALID,0,VALID,100,VALID,-0.0849042,VALID,20.5251,VALID,68,VALID,0.434411,
2006-03-31, 00:41:00,VALID,918.887,VALID,0,VALID,100,VALID,-0.101885,VALID,19.7084,VALID,68,VALID,0.472384,
2006-03-31, 00:42:00,VALID,918.858,VALID,0,VALID,100,VALID,-0.0679233,VALID,19.4267,VALID,68,VALID,0.421503,
2006-03-31, 00:43:00,VALID,918.84,VALID,0,VALID,100,VALID,-0.0849042,VALID,20.3149,VALID,68,VALID,0.124273,
2006-03-31, 00:44:00,VALID,918.834,VALID,0,VALID,100,VALID,-0.0849042,VALID,19.0738,VALID,68,VALID,0,
2006-03-31, 00:45:00,VALID,918.816,VALID,0,VALID,100,VALID,-0.0339617,VALID,19.3878,VALID,68,VALID,0,
2006-03-31, 00:46:00,VALID,918.806,VALID,0,VALID,100,VALID,-0.0679233,VALID,18.7183,VALID,68,VALID,0,
2006-03-31, 00:47:00,VALID,918.787,VALID,0,VALID,100,VALID,-0.0339617,VALID,20.6331,VALID,68,VALID,0,
2006-03-31, 00:48:00,VALID,918.768,VALID,0,VALID,100,VALID,-0.0509425,VALID,19.4323,VALID,68,VALID,0.0572917,
2006-03-31, 00:49:00,VALID,918.747,VALID,0,VALID,100,VALID,-0.0849042,VALID,19.9542,VALID,65,VALID,0.256288,
2006-03-31, 00:50:00,VALID,918.724,VALID,0,VALID,100,VALID,-0.0169808,VALID,19.8776,VALID,40,VALID,0.588341,
2006-03-31, 00:51:00,VALID,918.707,VALID,0,VALID,100,VALID,-0.0849042,VALID,20.2748,VALID,40,VALID,0.616997,
2006-03-31, 00:52:00,VALID,918.69,VALID,0,VALID,100,VALID,-0.101885,VALID,19.4953,VALID,40,VALID,0.76734,
2006-03-31, 00:53:00,VALID,918.664,VALID,0,VALID,100,VALID,-0.101885,VALID,20.8798,VALID,41,VALID,0.910417,
2006-03-31, 00:54:00,VALID,918.654,VALID,0,VALID,100,VALID,-0.0849042,VALID,19.2969,VALID,41,VALID,0.739702,
2006-03-31, 00:55:00,VALID,918.643,VALID,0,VALID,100,VALID,-0.0849042,VALID,18.5967,VALID,40,VALID,0.659598,
2006-03-31, 00:56:00,VALID,918.635,VALID,0,VALID,100,VALID,-0.0849042,VALID,20.4099,VALID,35,VALID,0.791295,
2006-03-31, 00:57:00,VALID,918.643,VALID,0,VALID,100,VALID,-0.0849042,VALID,19.7946,VALID,32,VALID,0.734012,
2006-03-31, 00:58:01,VALID,918.625,VALID,0,VALID,100,VALID,-0.101885,VALID,20.3802,VALID,31,VALID,0.805618,
2006-03-31, 00:59:00,VALID,918.629,VALID,0,VALID,100,VALID,-0.0849042,VALID,18.8823,VALID,30,VALID,0.775254,
2006-03-31, 01:00:00,VALID,918.63,VALID,0,VALID,100,VALID,-0.0509425,VALID,19.466,VALID,30,VALID,0.741071,
2006-03-31, 01:01:00,VALID,918.625,VALID,0,VALID,100,VALID,-0.101885,VALID,19.5427,VALID,30,VALID,0.765234,
2006-03-31, 01:02:00,VALID,918.62,VALID,0,VALID,100,VALID,-0.0849042,VALID,20.1385,VALID,30,VALID,0.662729,
2006-03-31, 01:03:00,VALID,918.626,VALID,0,VALID,100,VALID,-0.101885,VALID,20.3095,VALID,30,VALID,0.530664,
2006-03-31, 01:04:00,VALID,918.641,VALID,0,VALID,100,VALID,-0.0679233,VALID,18.8549,VALID,30,VALID,0.178977,
2006-03-31, 01:05:01,VALID,918.656,VALID,0,VALID,100,VALID,-0.101885,VALID,20.0237,VALID,30,VALID,0.070503,
2006-03-31, 01:06:00,VALID,918.64,VALID,0,VALID,100,VALID,-0.0849042,VALID,19.7513,VALID,30,VALID,0.0440168,
2006-03-31, 01:07:00,VALID,918.642,VALID,0,VALID,100,VALID,-0.101885,VALID,18.9674,VALID,30,VALID,0.190341,
2006-03-31, 01:08:00,VALID,918.642,VALID,0,VALID,100,VALID,-0.0849042,VALID,20.5713,VALID,30,VALID,0.259993,
2006-03-31, 01:09:00,VALID,918.625,VALID,0,VALID,100,VALID,-0.101885,VALID,19.9554,VALID,30,VALID,0.0348837,
2006-03-31, 01:10:00,VALID,918.601,VALID,0,VALID,99.973,VALID,-0.101885,VALID,20.8074,VALID,30,VALID,0,
2006-03-31, 01:11:01,VALID,918.577,VALID,0,VALID,99.807,VALID,-0.0849042,VALID,20.3306,VALID,30,VALID,0.000952744,
2006-03-31, 01:12:00,VALID,918.582,VALID,0,VALID,99.7536,VALID,-0.0849042,VALID,20.5341,VALID,38,VALID,0.164063,
2006-03-31, 01:13:00,VALID,918.577,VALID,0,VALID,99.7548,VALID,-0.101885,VALID,20.5866,VALID,71,VALID,0.346112,
2006-03-31, 01:14:01,VALID,918.591,VALID,0,VALID,99.7383,VALID,-0.101885,VALID,19.6157,VALID,72,VALID,0.540777,
2006-03-31, 01:15:00,VALID,918.591,VALID,0,VALID,99.8375,VALID,-0.0849042,VALID,19.0667,VALID,88,VALID,0.727431,
2006-03-31, 01:16:00,VALID,918.57,VALID,0,VALID,99.8515,VALID,-0.101885,VALID,19.6628,VALID,122,VALID,0.885121,
2006-03-31, 01:17:00,VALID,918.548,VALID,0,VALID,99.7625,VALID,-0.101885,VALID,20.4796,VALID,137,VALID,0.960742,
2006-03-31, 01:18:01,VALID,918.539,VALID,0,VALID,99.8805,VALID,-0.101885,VALID,20.3199,VALID,146,VALID,0.963021,
2006-03-31, 01:19:00,VALID,918.541,VALID,0,VALID,100,VALID,-0.101885,VALID,20.3393,VALID,147,VALID,0.6982,
2006-03-31, 01:20:01,VALID,918.546,VALID,0,VALID,100,VALID,-0.101885,VALID,20.0268,VALID,147,VALID,0.594131,
2006-03-31, 01:21:01,VALID,918.557,VALID,0,VALID,100,VALID,-0.0849042,VALID,18.9751,VALID,147,VALID,0.606771,
2006-03-31, 01:22:00,VALID,918.547,VALID,0,VALID,100,VALID,-0.0849042,VALID,18.7757,VALID,147,VALID,0.497713,
2006-03-31, 01:23:00,VALID,918.534,VALID,0,VALID,100,VALID,-0.101885,VALID,18.5389,VALID,147,VALID,0.660429,
2006-03-31, 01:24:00,VALID,918.513,VALID,0,VALID,100,VALID,-0.0849042,VALID,19.3411,VALID,151,VALID,0.60103,
2006-03-31, 01:25:01,VALID,918.504,VALID,0,VALID,100,VALID,-0.101885,VALID,21.1208,VALID,148,VALID,0.813672,
2006-03-31, 01:26:00,VALID,918.49,VALID,0,VALID,100,VALID,-0.0679233,VALID,20.3481,VALID,140,VALID,0.896532,
2006-03-31, 01:27:00,VALID,918.498,VALID,0,VALID,100,VALID,-0.0679233,VALID,19.8918,VALID,139,VALID,0.776634,
2006-03-31, 01:28:00,VALID,918.509,VALID,0,VALID,100,VALID,-0.0169808,VALID,20.1254,VALID,143,VALID,0.763797,
2006-03-31, 01:29:00,VALID,918.519,VALID,0,VALID,100,VALID,-0.0849042,VALID,18.6659,VALID,153,VALID,0.678646,
2006-03-31, 01:30:00,VALID,918.526,VALID,0,VALID,100,VALID,-0.0849042,VALID,19.2994,VALID,147,VALID,0.670945,
2006-03-31, 01:31:00,VALID,918.497,VALID,0,VALID,100,VALID,-0.101885,VALID,19.2364,VALID,141,VALID,0.800509,
2006-03-31, 01:32:00,VALID,918.495,VALID,0,VALID,100,VALID,-0.0339617,VALID,19.2754,VALID,140,VALID,0.917969,
2006-03-31, 01:33:00,VALID,918.465,VALID,0,VALID,100,VALID,-0.118866,VALID,20.1216,VALID,140,VALID,0.6962,
2006-03-31, 01:34:00,VALID,918.466,VALID,0,VALID,100,VALID,-0.101885,VALID,18.7265,VALID,140,VALID,0.64335,
2006-03-31, 01:35:00,VALID,918.445,VALID,0,VALID,100,VALID,-0.101885,VALID,19.1168,VALID,141,VALID,0.646341,
2006-03-31, 01:36:01,VALID,918.411,VALID,0,VALID,100,VALID,-0.0679233,VALID,19.9185,VALID,144,VALID,0.557165,
2006-03-31, 01:37:00,VALID,918.386,VALID,0,VALID,100,VALID,-0.135847,VALID,18.672,VALID,144,VALID,0.669471,
2006-03-31, 01:38:00,VALID,918.343,VALID,0,VALID,100,VALID,-0.0849042,VALID,20.0955,VALID,143,VALID,0.615945,
2006-03-31, 01:39:00,VALID,918.323,VALID,0,VALID,100,VALID,-0.0169808,VALID,19.4022,VALID,143,VALID,0.718369,
2006-03-31, 01:40:00,VALID,918.288,VALID,0,VALID,100,VALID,-0.0679233,VALID,20.5626,VALID,142,VALID,0.530362,
2006-03-31, 01:41:01,VALID,918.267,VALID,0,VALID,100,VALID,-0.0849042,VALID,19.9972,VALID,142,VALID,0.136896,
2006-03-31, 01:42:00,VALID,918.251,VALID,0,VALID,100,VALID,-0.0849042,VALID,19.9514,VALID,142,VALID,0.00585938,
2006-03-31, 01:43:01,VALID,918.243,VALID,0,VALID,100,VALID,-0.0849042,VALID,19.1263,VALID,142,VALID,0.00941051,
2006-03-31, 01:44:01,VALID,918.234,VALID,0,VALID,100,VALID,-0.101885,VALID,19.2728,VALID,142,VALID,0,
2006-03-31, 01:45:01,VALID,918.228,VALID,0,VALID,100,VALID,-0.101885,VALID,19.6667,VALID,142,VALID,0.25,
2006-03-31, 01:46:01,VALID,918.227,VALID,0,VALID,100,VALID,-0.0679233,VALID,19.2713,VALID,142,VALID,0.382813,
2006-03-31, 01:47:00,VALID,918.238,VALID,0,VALID,100,VALID,0.0509425,VALID,20.23,VALID,142,VALID,0.245722,
2006-03-31, 01:48:01,VALID,918.236,VALID,0,VALID,100,VALID,0.0339617,VALID,21.2537,VALID,142,VALID,0.0223214,
2006-03-31, 01:49:00,VALID,918.236,VALID,0,VALID,100,VALID,-0.0849042,VALID,20.2256,VALID,142,VALID,0,
2006-03-31, 01:50:01,VALID,918.221,VALID,0,VALID,100,VALID,-0.0849042,VALID,19.2041,VALID,142,VALID,0,
2006-03-31, 01:51:01,VALID,918.208,VALID,0,VALID,100,VALID,-0.0509425,VALID,19.1374,VALID,142,VALID,0,
2006-03-31, 01:52:00,VALID,918.21,VALID,0,VALID,100,VALID,-0.0679233,VALID,21.1515,VALID,142,VALID,0,
2006-03-31, 01:53:01,VALID,918.204,VALID,0,VALID,100,VALID,-0.0339617,VALID,19.5668,VALID,142,VALID,0,
2006-03-31, 01:54:01,VALID,918.205,VALID,0,VALID,100,VALID,-0.101885,VALID,19.8641,VALID,142,VALID,0,
2006-03-31, 01:55:00,VALID,918.211,VALID,0,VALID,100,VALID,-0.0509425,VALID,19.4399,VALID,142,VALID,0,
2006-03-31, 01:56:00,VALID,918.205,VALID,0,VALID,99.8438,VALID,-0.101885,VALID,20.1026,VALID,142,VALID,0,
2006-03-31, 01:57:01,VALID,918.202,VALID,0,VALID,99.7917,VALID,-0.101885,VALID,19.012,VALID,142,VALID,0,
2006-03-31, 01:58:00,VALID,918.217,VALID,0,VALID,99.8667,VALID,-0.0849042,VALID,21.4278,VALID,142,VALID,0,
2006-03-31, 01:59:00,VALID,918.218,VALID,0,VALID,99.9451,VALID,-0.0849042,VALID,19.5644,VALID,142,VALID,0,
2006-03-31, 02:00:00,VALID,918.213,VALID,0,VALID,100,VALID,-0.0679233,VALID,19.8362,VALID,142,VALID,0,
2006-03-31, 02:01:00,VALID,918.204,VALID,0,VALID,100,VALID,-0.0679233,VALID,21.0612,VALID,142,VALID,0,
2006-03-31, 02:02:01,VALID,918.206,VALID,0,VALID,100,VALID,-0.0849042,VALID,20.5214,VALID,142,VALID,0,
2006-03-31, 02:03:00,VALID,918.196,VALID,0,VALID,100,VALID,-0.0679233,VALID,20.4281,VALID,142,VALID,0,
2006-03-31, 02:04:01,VALID,918.195,VALID,0,VALID,99.9753,VALID,-0.0339617,VALID,20.5709,VALID,142,VALID,0,
2006-03-31, 02:05:01,VALID,918.186,VALID,0,VALID,99.8604,VALID,-0.0679233,VALID,20.4144,VALID,142,VALID,0,
2006-03-31, 02:06:00,VALID,918.172,VALID,0,VALID,99.8349,VALID,-0.152827,VALID,20.1854,VALID,142,VALID,0,
2006-03-31, 02:07:01,VALID,918.151,VALID,0,VALID,99.8515,VALID,-0.135847,VALID,20.1086,VALID,142,VALID,0.0630451,
2006-03-31, 02:08:01,VALID,918.152,VALID,0,VALID,99.8108,VALID,-0.0509425,VALID,20.2593,VALID,142,VALID,0.307413,
2006-03-31, 02:09:01,VALID,918.175,VALID,0,VALID,99.6874,VALID,-0.0679233,VALID,20.2037,VALID,142,VALID,0.419398,
2006-03-31, 02:10:00,VALID,918.195,VALID,0,VALID,99.4471,VALID,-0.0849042,VALID,19.2163,VALID,142,VALID,0.302591,
2006-03-31, 02:11:00,VALID,918.22,VALID,0,VALID,99.1228,VALID,-0.0509425,VALID,19.8887,VALID,142,VALID,0.0667783,
2006-03-31, 02:12:00,VALID,918.237,VALID,0,VALID,98.9588,VALID,-0.0849042,VALID,20.5696,VALID,142,VALID,0,
2006-03-31, 02:13:00,VALID,918.241,VALID,0,VALID,98.7159,VALID,-0.0509425,VALID,20.88,VALID,142,VALID,0,
2006-03-31, 02:14:00,VALID,918.225,VALID,0,VALID,98.557,VALID,-0.0679233,VALID,18.8283,VALID,142,VALID,0,
2006-03-31, 02:15:00,VALID,918.223,VALID,0,VALID,98.4298,VALID,-0.0339617,VALID,19.6018,VALID,142,VALID,0.110137,
2006-03-31, 02:16:00,VALID,918.23,VALID,0,VALID,98.4311,VALID,-0.0509425,VALID,20.6261,VALID,142,VALID,0.281456,
2006-03-31, 02:17:00,VALID,918.228,VALID,0,VALID,98.543,VALID,-0.0339617,VALID,18.8922,VALID,142,VALID,0.485243,
2006-03-31, 02:18:00,VALID,918.211,VALID,0,VALID,98.7096,VALID,-0.0169808,VALID,19.5956,VALID,138,VALID,0.726042,
2006-03-31, 02:19:00,VALID,918.196,VALID,0,VALID,99.03,VALID,-0.0169808,VALID,20.0773,VALID,128,VALID,0.800876,
2006-03-31, 02:20:01,VALID,918.202,VALID,0,VALID,99.3377,VALID,-0.0509425,VALID,21.8736,VALID,128,VALID,0.59375,
2006-03-31, 02:21:00,VALID,918.183,VALID,0,VALID,99.5145,VALID,-0.0849042,VALID,19.225,VALID,128,VALID,0.457403,
2006-03-31, 02:22:00,VALID,918.167,VALID,0,VALID,99.517,VALID,-0.0849042,VALID,19.8078,VALID,128,VALID,0.646528,
2006-03-31, 02:23:01,VALID,918.149,VALID,0,VALID,99.5921,VALID,-0.101885,VALID,19.5364,VALID,122,VALID,0.610863,
2006-03-31, 02:24:01,VALID,918.145,VALID,0,VALID,99.7141,VALID,-0.101885,VALID,20.921,VALID,118,VALID,0.397693,
2006-03-31, 02:25:00,VALID,918.152,VALID,0,VALID,99.7625,VALID,-0.0849042,VALID,20.4783,VALID,118,VALID,0.320479,
2006-03-31, 02:26:01,VALID,918.161,VALID,0,VALID,99.8019,VALID,0,VALID,18.126,VALID,118,VALID,0.318407,
2006-03-31, 02:27:00,VALID,918.161,VALID,0,VALID,99.8515,VALID,-0.0679233,VALID,19.9878,VALID,118,VALID,0.0358232,
2006-03-31, 02:28:01,VALID,918.15,VALID,0,VALID,99.9062,VALID,-0.0679233,VALID,20.5377,VALID,118,VALID,0,
2006-03-31, 02:29:00,VALID,918.127,VALID,0,VALID,99.8985,VALID,-0.0849042,VALID,20.2964,VALID,118,VALID,0,
2006-03-31, 02:30:01,VALID,918.106,VALID,0,VALID,99.9074,VALID,0.0169808,VALID,20.339,VALID,118,VALID,0,
2006-03-31, 02:31:00,VALID,918.087,VALID,0,VALID,99.9303,VALID,-0.0849042,VALID,20.179,VALID,118,VALID,0,
2006-03-31, 02:32:01,VALID,918.063,VALID,0,VALID,99.9697,VALID,0.0339617,VALID,19.8603,VALID,118,VALID,0,
2006-03-31, 02:33:01,VALID,918.056,VALID,0,VALID,100,VALID,-0.0679233,VALID,19.6962,VALID,118,VALID,0,
2006-03-31, 02:34:00,VALID,918.036,VALID,0,VALID,99.973,VALID,-0.0339617,VALID,19.6936,VALID,118,VALID,0.0421113,
2006-03-31, 02:35:00,VALID,918.023,VALID,0,VALID,99.8616,VALID,-0.0169808,VALID,19.4913,VALID,118,VALID,0.262277,
2006-03-31, 02:36:00,VALID,918.019,VALID,0,VALID,99.7663,VALID,-0.0169808,VALID,18.9519,VALID,118,VALID,0.439063,
2006-03-31, 02:37:01,VALID,918.02,VALID,0,VALID,99.8019,VALID,-0.0339617,VALID,19.7296,VALID,118,VALID,0.405869,
2006-03-31, 02:38:01,VALID,918.035,VALID,0,VALID,99.9952,VALID,-0.0509425,VALID,19.7209,VALID,118,VALID,0.382813,
2006-03-31, 02:39:00,VALID,918.037,VALID,0,VALID,100,VALID,-0.0339617,VALID,21.13,VALID,118,VALID,0.401228,
2006-03-31, 02:40:00,VALID,918.051,VALID,0,VALID,99.9926,VALID,-0.0169808,VALID,20.0715,VALID,118,VALID,0.307706,
2006-03-31, 02:41:01,VALID,918.035,VALID,0,VALID,99.9519,VALID,0,VALID,20.3534,VALID,118,VALID,0.289608,
2006-03-31, 02:42:00,VALID,918.028,VALID,0,VALID,99.8973,VALID,-0.0339617,VALID,19.0926,VALID,118,VALID,0.418308,
2006-03-31, 02:43:01,VALID,918.013,VALID,0,VALID,99.8566,VALID,-0.152827,VALID,20.3502,VALID,89,VALID,0.543241,
2006-03-31, 02:44:00,VALID,918.017,VALID,0,VALID,99.8629,VALID,-0.0509425,VALID,19.512,VALID,55,VALID,0.465774,
2006-03-31, 02:45:01,VALID,918.018,VALID,0,VALID,99.8782,VALID,-0.135847,VALID,20.394,VALID,55,VALID,0.329942,
2006-03-31, 02:46:01,VALID,918.029,VALID,0,VALID,99.8477,VALID,-0.101885,VALID,19.3702,VALID,55,VALID,0.189503,
2006-03-31, 02:47:00,VALID,918.041,VALID,0,VALID,99.7612,VALID,-0.101885,VALID,19.8345,VALID,55,VALID,0.00363372,
2006-03-31, 02:48:00,VALID,918.046,VALID,0,VALID,99.587,VALID,-0.0849042,VALID,19.9468,VALID,55,VALID,0,
2006-03-31, 02:49:01,VALID,918.038,VALID,0,VALID,99.5285,VALID,-0.0849042,VALID,20.7789,VALID,55,VALID,0,
2006-03-31, 02:50:00,VALID,918.028,VALID,0,VALID,99.545,VALID,-0.0849042,VALID,20.5909,VALID,55,VALID,0,
2006-03-31, 02:51:00,VALID,918.02,VALID,0,VALID,99.587,VALID,-0.101885,VALID,20.223,VALID,55,VALID,0,
2006-03-31, 02:52:01,VALID,918.008,VALID,0,VALID,99.5463,VALID,-0.0679233,VALID,20.5121,VALID,55,VALID,0,
2006-03-31, 02:53:01,VALID,917.986,VALID,0,VALID,99.4624,VALID,-0.0849042,VALID,20.1524,VALID,55,VALID,0.00390625,
2006-03-31, 02:54:00,VALID,917.958,VALID,0,VALID,99.2754,VALID,-0.0849042,VALID,20.5073,VALID,55,VALID,0.304878,
2006-03-31, 02:55:01,VALID,917.935,VALID,0,VALID,99.1763,VALID,-0.101885,VALID,20.0477,VALID,95,VALID,0.593164,
2006-03-31, 02:56:01,VALID,917.901,VALID,0,VALID,99.1559,VALID,-0.101885,VALID,19.0801,VALID,121,VALID,0.722561,
2006-03-31, 02:57:01,VALID,917.89,VALID,0,VALID,99.2793,VALID,-0.101885,VALID,20.4279,VALID,121,VALID,0.450149,
2006-03-31, 02:58:01,VALID,917.875,VALID,0,VALID,99.5412,VALID,-0.0849042,VALID,19.1758,VALID,121,VALID,0.187322,
2006-03-31, 02:59:01,VALID,917.877,VALID,0,VALID,99.7459,VALID,-0.0849042,VALID,20.7067,VALID,121,VALID,0.180831,
2006-03-31, 03:00:01,VALID,917.865,VALID,0,VALID,99.8629,VALID,-0.0679233,VALID,19.5257,VALID,121,VALID,0.295058,
2006-03-31, 03:01:01,VALID,917.847,VALID,0,VALID,99.9715,VALID,-0.101885,VALID,19.8144,VALID,121,VALID,0.479911,
2006-03-31, 03:02:01,VALID,917.822,VALID,0,VALID,100,VALID,-0.0679233,VALID,20.0164,VALID,122,VALID,0.353743,
2006-03-31, 03:03:01,VALID,917.805,VALID,0,VALID,100,VALID,-0.0849042,VALID,20.4482,VALID,121,VALID,0.44093,
2006-03-31, 03:04:01,VALID,917.782,VALID,0,VALID,100,VALID,-0.0849042,VALID,19.656,VALID,112,VALID,0.388579,
2006-03-31, 03:05:01,VALID,917.765,VALID,0,VALID,100,VALID,-0.0849042,VALID,19.9792,VALID,76,VALID,0.662919,
2006-03-31, 03:06:01,VALID,917.754,VALID,0,VALID,100,VALID,0,VALID,19.7505,VALID,45,VALID,0.806323,
2006-03-31, 03:07:01,VALID,917.731,VALID,0,VALID,100,VALID,-0.0169808,VALID,18.6617,VALID,45,VALID,0.628551,
2006-03-31, 03:08:01,VALID,917.718,VALID,0,VALID,100,VALID,-0.101885,VALID,19.906,VALID,45,VALID,0.295987,
2006-03-31, 03:09:01,VALID,917.723,VALID,0,VALID,100,VALID,-0.101885,VALID,19.8814,VALID,45,VALID,0.211111,
2006-03-31, 03:10:01,VALID,917.701,VALID,0,VALID,100,VALID,-0.101885,VALID,19.3505,VALID,45,VALID,0.550595,
2006-03-31, 03:11:01,VALID,917.697,VALID,0,VALID,100,VALID,-0.101885,VALID,19.6776,VALID,45,VALID,0.540516,
2006-03-31, 03:12:01,VALID,917.669,VALID,0,VALID,100,VALID,-0.101885,VALID,20.409,VALID,45,VALID,0.50362,
2006-03-31, 03:13:01,VALID,917.645,VALID,0,VALID,100,VALID,-0.101885,VALID,20.05,VALID,45,VALID,0.558117,
2006-03-31, 03:14:01,VALID,917.63,VALID,0,VALID,100,VALID,-0.118866,VALID,20.5198,VALID,45,VALID,0.664063,
2006-03-31, 03:15:01,VALID,917.621,VALID,0,VALID,99.9878,VALID,-0.101885,VALID,20.0691,VALID,45,VALID,0.681445,
2006-03-31, 03:16:01,VALID,917.618,VALID,0,VALID,99.9329,VALID,-0.101885,VALID,20.7446,VALID,45,VALID,0.65904,
2006-03-31, 03:17:01,VALID,917.63,VALID,0,VALID,99.9494,VALID,-0.0849042,VALID,20.2908,VALID,45,VALID,0.599085,
2006-03-31, 03:18:01,VALID,917.651,VALID,0,VALID,99.9418,VALID,-0.101885,VALID,20.3148,VALID,45,VALID,0.416211,
2006-03-31, 03:19:01,VALID,917.649,VALID,0,VALID,99.9163,VALID,-0.101885,VALID,20.2377,VALID,45,VALID,0.0986111,
2006-03-31, 03:20:01,VALID,917.654,VALID,0,VALID,99.8922,VALID,-0.101885,VALID,20.3847,VALID,45,VALID,0,
2006-03-31, 03:21:01,VALID,917.642,VALID,0,VALID,99.8947,VALID,-0.0849042,VALID,19.4658,VALID,45,VALID,0.044779,
2006-03-31, 03:22:01,VALID,917.639,VALID,0,VALID,99.7587,VALID,-0.135847,VALID,20.2991,VALID,45,VALID,0,
2006-03-31, 03:23:01,VALID,917.621,VALID,0,VALID,99.7192,VALID,-0.101885,VALID,20.1041,VALID,45,VALID,0,
2006-03-31, 03:24:01,VALID,917.612,VALID,0,VALID,99.7141,VALID,-0.101885,VALID,20.1828,VALID,45,VALID,0.261265,
2006-03-31, 03:25:01,VALID,917.597,VALID,0,VALID,99.7981,VALID,-0.101885,VALID,20.6049,VALID,45,VALID,0.407924,
2006-03-31, 03:26:01,VALID,917.579,VALID,0,VALID,99.8693,VALID,-0.101885,VALID,20.6025,VALID,45,VALID,0.505716,
2006-03-31, 03:27:01,VALID,917.546,VALID,0,VALID,99.9456,VALID,-0.101885,VALID,20.0368,VALID,45,VALID,0.717076,
2006-03-31, 03:28:01,VALID,917.553,VALID,0,VALID,99.9916,VALID,-0.101885,VALID,20.5315,VALID,45,VALID,0.791903,
2006-03-31, 03:29:01,VALID,917.539,VALID,0,VALID,100,VALID,-0.0849042,VALID,19.5078,VALID,45,VALID,0.678445,
2006-03-31, 03:30:01,VALID,917.556,VALID,0,VALID,99.9173,VALID,-0.101885,VALID,20.9545,VALID,45,VALID,0.581143,
2006-03-31, 03:31:01,VALID,917.546,VALID,0,VALID,99.8044,VALID,-0.101885,VALID,19.2412,VALID,45,VALID,0.572621,
2006-03-31, 03:32:00,VALID,917.539,VALID,0,VALID,99.7625,VALID,-0.0679233,VALID,19.7804,VALID,45,VALID,0.660823,
2006-03-31, 03:33:00,VALID,917.549,VALID,0,VALID,99.7447,VALID,-0.101885,VALID,20.8306,VALID,45,VALID,0.696615,
2006-03-31, 03:34:00,VALID,917.54,VALID,0,VALID,99.91,VALID,-0.101885,VALID,20.6739,VALID,45,VALID,0.492014,
2006-03-31, 03:35:00,VALID,917.548,VALID,0,VALID,99.998,VALID,-0.101885,VALID,19.7569,VALID,45,VALID,0.472747,
2006-03-31, 03:36:00,VALID,917.55,VALID,0,VALID,100,VALID,-0.0849042,VALID,19.8382,VALID,45,VALID,0.398828,
2006-03-31, 03:37:00,VALID,917.557,VALID,0,VALID,100,VALID,-0.0169808,VALID,20.5026,VALID,45,VALID,0.239644,